SA3VCC-15 Weather Reports


time (UTC)temp
C
wind
direction
speed
KPH
gust
KPH
rain 1hr
cm
rain 24hr
cm
rain mn
cm
humidity
%
barometer
mb
20260507101649 16 0.0 0.0 0.00 0.00 0.00 34 1012.3
20260507095549 21 0.0 0.0 0.00 0.00 0.00 25 1012.2
20260507093449 17 0.0 0.0 0.00 0.00 0.00 30 1012.2
20260507091349 17 0.0 0.0 0.00 0.00 0.00 31 1012.3
20260507085249 15 0.0 0.0 0.00 0.00 0.00 29 1012.2
20260507083149 15 0.0 0.0 0.00 0.00 0.00 35 1012.2
20260507081049 17 0.0 0.0 0.00 0.00 0.00 33 1012.0
20260507074949 15 0.0 0.0 0.00 0.00 0.00 32 1012.0
20260507072849 13 0.0 0.0 0.00 0.00 0.00 38 1011.9
20260507070749 11 0.0 0.0 0.00 0.00 0.00 40 1011.8
20260507060449 8 0.0 0.0 0.00 0.00 0.00 48 1011.4
20260507054349 6 0.0 0.0 0.00 0.00 0.00 52 1011.3
20260507052249 6 0.0 0.0 0.00 0.00 0.00 55 1011.2
20260507050148 5 0.0 0.0 0.00 0.00 0.00 55 1011.2
20260507044048 4 0.0 0.0 0.00 0.00 0.00 58 1011.2
20260507041948 5 0.0 0.0 0.00 0.00 0.00 56 1011.1
20260507035848 3 0.0 0.0 0.00 0.00 0.00 60 1011.0
20260507031649 2 0.0 0.0 0.00 0.00 0.00 61 1010.7
20260507025548 3 0.0 0.0 0.00 0.00 0.00 62 1010.6
20260507023448 2 0.0 0.0 0.00 0.00 0.00 61 1010.5
20260507021348 2 0.0 0.0 0.00 0.00 0.00 60 1010.6
20260507015248 2 0.0 0.0 0.00 0.00 0.00 60 1010.6
20260507013148 2 0.0 0.0 0.00 0.00 0.00 62 1010.6
20260507011048 0 0.0 0.0 0.00 0.00 0.00 67 1010.6
20260507004948 1 0.0 0.0 0.00 0.00 0.00 65 1010.7
20260507000748 2 0.0 0.0 0.00 0.00 0.00 58 1010.3
20260506234648 4 0.0 0.0 0.00 0.00 0.00 53 1010.2
20260506232548 4 0.0 0.0 0.00 0.00 0.00 54 1009.9
20260506230447 5 0.0 0.0 0.00 0.00 0.00 53 1009.8
20260506224347 5 0.0 0.0 0.00 0.00 0.00 51 1009.5
20260506222247 5 0.0 0.0 0.00 0.00 0.00 50 1009.4
20260506220147 6 0.0 0.0 0.00 0.00 0.00 49 1009.3
20260506214048 6 0.0 0.0 0.00 0.00 0.00 48 1009.2
20260506211947 6 0.0 0.0 0.00 0.00 0.00 46 1009.1
20260506205847 6 0.0 0.0 0.00 0.00 0.00 48 1009.0
20260506201647 6 0.0 0.0 0.00 0.00 0.00 43 1008.7
20260506195547 7 0.0 0.0 0.00 0.00 0.00 43 1008.6
20260506193447 7 0.0 0.0 0.00 0.00 0.00 43 1008.6
20260506191347 7 0.0 0.0 0.00 0.00 0.00 40 1008.5
20260506185247 8 0.0 0.0 0.00 0.00 0.00 40 1008.4
20260506183147 8 0.0 0.0 0.00 0.00 0.00 39 1008.3
20260506181047 9 0.0 0.0 0.00 0.00 0.00 37 1008.4
20260506174947 10 0.0 0.0 0.00 0.00 0.00 34 1008.3
20260506172847 11 0.0 0.0 0.00 0.00 0.00 31 1008.1
20260506170747 12 0.0 0.0 0.00 0.00 0.00 29 1008.4
20260506164647 12 0.0 0.0 0.00 0.00 0.00 30 1008.3
20260506162547 12 0.0 0.0 0.00 0.00 0.00 28 1008.4
20260506160447 15 0.0 0.0 0.00 0.00 0.00 24 1008.3
20260506154347 17 0.0 0.0 0.00 0.00 0.00 24 1008.3
20260506152247 17 0.0 0.0 0.00 0.00 0.00 20 1008.3
20260506150147 17 0.0 0.0 0.00 0.00 0.00 21 1008.5
20260506144047 16 0.0 0.0 0.00 0.00 0.00 23 1008.8
20260506141947 17 0.0 0.0 0.00 0.00 0.00 23 1008.9
20260506135847 18 0.0 0.0 0.00 0.00 0.00 20 1008.9
20260506133746 19 0.0 0.0 0.00 0.00 0.00 20 1009.1
20260506131647 20 0.0 0.0 0.00 0.00 0.00 20 1009.2
20260506125547 15 0.0 0.0 0.00 0.00 0.00 23 1009.3
20260506123446 15 0.0 0.0 0.00 0.00 0.00 21 1009.4
20260506121346 18 0.0 0.0 0.00 0.00 0.00 18 1009.4
20260506115246 21 0.0 0.0 0.00 0.00 0.00 17 1009.5
20260506113146 18 0.0 0.0 0.00 0.00 0.00 19 1009.7
20260506111046 21 0.0 0.0 0.00 0.00 0.00 15 1009.6
20260506104946 20 0.0 0.0 0.00 0.00 0.00 20 1009.9